Location: Mentone
(34.5413°N, 85.5351°W)
Time: 21:35:11
(UTC-05:00)

Vanguard 2 Rocket - Visible Passes

Search period start: 28 July 2014 00:00
Search period end: 07 August 2014 00:00
Orbit: 553 x 3336 km, 32.9° (Epoch: 26 July)

Date Brightness Start Highest point End Pass type
(mag) Time Alt. Az. Time Alt. Az. Time Alt. Az.
28 Jul 9.7 01:54:23 21° SE 01:54:43 21° SE 02:04:14 10° E visible
28 Jul 9.1 04:00:17 26° SW 04:08:13 58° SSE 04:26:27 10° ENE visible
29 Jul 8.9 03:05:10 36° S 03:08:59 45° SE 03:24:38 10° E visible
29 Jul 9.4 05:11:30 10° WSW 05:24:47 79° SSE 05:44:59 10° E visible
30 Jul 9.2 02:10:02 31° SE 02:10:21 31° SE 02:22:32 10° E visible
30 Jul 9.0 04:15:56 23° SW 04:24:39 70° SSE 04:43:26 10° E visible
31 Jul 9.8 01:14:54 17° ESE 01:14:54 17° ESE 01:19:49 10° E visible
31 Jul 8.6 03:20:47 40° SSW 03:25:09 58° SSE 03:41:45 10° E visible
01 Aug 8.6 02:25:39 43° SSE 02:26:16 44° SE 02:39:59 10° E visible
01 Aug 9.0 04:31:33 18° WSW 04:41:22 79° SSE 05:00:24 10° E visible
02 Aug 9.3 01:30:30 26° ESE 01:30:30 26° ESE 01:38:08 10° E visible
02 Aug 8.6 03:36:24 37° SW 03:41:38 70° SSE 03:58:43 10° E visible
03 Aug 10.0 00:35:22 11° E 00:35:22 11° E 00:35:43 10° E visible
03 Aug 8.2 02:41:16 55° S 02:42:30 57° SSE 02:57:05 10° E visible
03 Aug 9.0 04:47:09 12° W 04:58:14 84° S 05:17:23 10° E visible
04 Aug 8.8 01:46:08 38° ESE 01:46:08 38° ESE 01:55:35 10° E visible
04 Aug 8.6 03:52:02 30° WSW 03:58:22 79° SSE 04:15:41 10° E visible
05 Aug 9.7 00:51:01 17° E 00:51:01 17° E 00:54:06 10° E visible
05 Aug 8.0 02:56:55 58° SW 02:59:02 70° SSE 03:14:04 10° E visible
05 Aug 9.1 05:03:38 10° W 05:15:11 84° S 05:34:21 10° E visible
06 Aug 8.3 02:01:49 52° ESE 02:01:49 52° ESE 02:12:40 10° E visible
06 Aug 8.6 04:07:43 22° W 04:15:15 84° S 04:32:41 10° E visible
